Location: Ozark
(37.5425°N, 88.7628°W)
Time: 20:50:42
(UTC+00:00)

STARLINK-1050 - Pass Details

Date: 26 January 2020
Orbit: 549 x 550 km, 53.1° (Epoch: 22 February)

Event Time Altitude Azimuth Distance (km) Brightness Sun altitude
Exits shadow 10:55:12 30° 165° (SSE) 994 5.0 -25.4°
Maximum altitude 10:56:20 36° 131° (SE) 875 5.0 -25.2°
Drops below altitude 10° 11:00:07 10° 64° (ENE) 1,817 7.0 -24.4°
Enters shadow 12:02:16 -59° 231° (SW) 11,582 10.2 -12.3°
